Regional Weather Roundup
Issued by NWS Bismarck, ND

Home | Current Version | Previous Version | Text Only | Print | Product List | Glossary On
Versions: 1 2 3 4 5 6 7 8 9 10 11 12 13 14 15 16 17 18 19 20 21 22 23 24 25 26 27 28 29 30 31 32 33 34 35 36 37 38 39 40 41 42 43 44 45 46 47 48 49 50
746
ASUS43 KBIS 221101
RWRBIS

NWR BROADCAST TEXT
NATIONAL WEATHER SERVICE BISMARCK ND
600 AM CDT FRI MAY 22 2015

NOTE: "FAIR" INDICATES FEW OR NO CLOUDS BELOW 12,000 FEET WITH NO
SIGNIFICANT WEATHER AND/OR OBSTRUCTIONS TO VISIBILITY.


CITY           SKY/WX    TMP DP  RH WIND       PRES   REMARKS
WILLISTON      CLEAR     41  35  79 CALM      30.12R
MINOT          CLEAR     48  35  60 E5        30.13S
MINOT AFB      CLEAR     42  40  92 SE3       30.12S
BISMARCK       CLEAR     43  39  86 NE5       30.16R
DICKINSON      CLEAR     40  31  70 E8        30.12R
GARRISON         N/A     44  37  76 E3        30.14S
HETTINGER ARPT CLEAR     34  29  82 CALM      30.14S
JAMESTOWN      CLEAR     44  41  89 CALM      30.16R
CARRINGTON     FAIR      43  41  93 SE7       30.17S
HAZEN          FAIR      37  36  93 CALM      30.16R
OAKES            N/A     41  39  93 SE3       30.17R
STANLEY        FAIR      43  43 100 CALM      30.15S
$$

CITY           SKY/WX    TMP DP  RH WIND       PRES   REMARKS
GRAND FORKS    CLEAR     39  36  89 S3        30.16R
GRAND FORKS AF CLEAR     40  36  86 SW5       30.16R
DEVILS LAKE    CLEAR     45  36  70 CALM      30.15S
FARGO          CLEAR     42  38  85 CALM      30.17R
CAVALIER       FAIR      46  39  76 S5        30.14S
GRAFTON        FAIR      41  41 100 SW8       30.16S
LANGDON        FAIR      43  37  81 S10       30.15S
ROLLA          FAIR      45  32  61 SW8       30.15S
WALHALLA       FAIR      48  36  61 S3        30.13S
$$

CITY           SKY/WX    TMP DP  RH WIND       PRES   REMARKS
ABERDEEN       CLEAR     45  38  76 E6        30.17S
MOBRIDGE       CLEAR     43  39  86 CALM      30.13S
RAPID CITY     CLOUDY    49  45  86 SE6       30.10S
GLASGOW        CLEAR     46  32  58 E13       30.05F
SIDNEY         CLEAR     39  34  81 CALM      30.12R
WOLF POINT     CLEAR     39  33  79 E9        30.10S
GLENDIVE       CLEAR     43  30  61 E8        30.10S
MILES CITY     PTCLDY    45  32  60 SE6       30.04S
BAKER          CLEAR     32  28  85 SE7       30.11R
$$

CITY           SKY/WX    TMP DP  RH WIND       PRES   REMARKS
BILLINGS       MOCLDY    47  41  80 N3        29.96R
GREAT FALLS    CLEAR     44  38  79 CALM      29.95S
$$




USA.gov is the U.S. government's official web portal to all federal, state and local government web resources and services.